Weather observations for the past three days for
Austin Executive Airport
Imperial (Metric)
Date Time (cdt) Wind (mph) Vis. (mi.) Weather Sky Cond. Temperature (ºF) Relative Humidity Wind Chill (°F) Heat Index (°F) Pressure Precipitation (in)
Air Dwpt 6 hour altimeter (in) sea level (mb) 1 hr 3 hr 6 hr
Max. Min.
23 18:55 E 6 9.00 Fair CLR 91.4 68 46% 96 29.89 0.0
23 18:35 SE 7 9.00 A Few Clouds FEW055 93.2 68 44% 98 29.89 0.0
23 17:55 E 5 9.00 Partly Cloudy SCT055 93.2 68 44% 98 29.89 0.0
23 17:35 SE 7 9.00 A Few Clouds FEW060 93.2 68 44% 98 29.9 0.0
23 17:15 Calm 9.00 A Few Clouds FEW060 93.2 68 44% 98 29.9 0.0
23 16:55 Calm 9.00 Partly Cloudy SCT060 93.2 66.2 41% 96 29.91 0.0
23 16:35 Vrbl 5 9.00 A Few Clouds FEW060 93.2 68 44% 98 29.92 0.0
23 16:15 E 5 9.00 Fair CLR 93.2 64.4 39% 95 29.92 0.0
23 15:55 Vrbl 7 9.00 Fair CLR 93.2 66.2 41% 96 29.93 0.0
23 15:35 SE 5 G 12 10.00 Fair CLR 93.2 66.2 41% 96 29.94 0.0
23 15:15 Vrbl 5 10.00 Fair CLR 93.2 64.4 39% 95 29.94 0.0
23 14:55 NE 6 10.00 Fair CLR 93.2 64.4 39% 95 29.94 0.0
23 14:35 Calm 9.00 Fair CLR 91.4 62.6 38% 92 29.95 0.0
23 14:15 SE 8 10.00 Fair CLR 93.2 60.8 34% 93 29.96 0.0
23 13:55 E 6 9.00 Fair CLR 91.4 64.4 41% 93 29.97 0.0
23 13:35 Calm 9.00 Fair CLR 91.4 64.4 41% 93 29.97 0.0
23 13:15 SE 8 10.00 Fair CLR 91.4 68 46% 96 29.98 0.0
23 12:55 SE 7 G 13 9.00 Fair CLR 91.4 68 46% 96 29.98 0.0
23 12:35 SE 8 G 14 9.00 Fair CLR 89.6 69.8 52% 95 29.99 0.0
23 12:15 E 6 G 13 9.00 Fair CLR 89.6 69.8 52% 95 29.99 0.0
23 11:55 Vrbl 6 G 13 8.00 Fair CLR 89.6 71.6 55% 96 29.99 0.0
23 11:35 Vrbl 6 8.00 Fair CLR 89.6 71.6 55% 96 30 0.0
23 11:15 E 8 9.00 Fair CLR 87.8 71.6 59% 94 30 0.0
23 10:55 SE 9 9.00 Fair CLR 87.8 71.6 59% 94 29.99 0.0
23 10:35 SE 6 9.00 Fair CLR 87.8 71.6 59% 94 30 0.0
23 10:15 Calm 9.00 Fair CLR 86 69.8 59% 91 30 0.0
23 09:55 Calm 9.00 Fair CLR 86 71.6 62% 92 30 0.0
23 09:35 Vrbl 5 9.00 Fair CLR 84.2 71.6 66% 90 30 0.0
23 09:15 SE 5 9.00 Fair CLR 84.2 71.6 66% 90 30 0.0
23 08:55 Calm 9.00 Fair CLR 82.4 73.4 74% 88 30 0.0
23 08:35 Calm 8.00 Fair CLR 80.6 75.2 84% 86 30 0.0
23 08:15 Calm 8.00 Fair CLR 78.8 77 94% 83 30 0.0
23 07:55 Calm 8.00 Fair CLR 78.8 77 94% 83 30 0.0
23 07:35 Calm 6.00 Fog/Mist CLR 77 77 100% 78 29.99 0.0
23 07:15 Calm 6.00 Fog/Mist CLR 75.2 75.2 100% 73 29.99 0.0
23 06:55 Calm 5.00 Fog/Mist CLR 73.4 71.6 94% 29.98 0.0
23 06:35 Calm 6.00 Fog/Mist CLR 73.4 73.4 100% 29.98 0.0
23 06:15 Calm 8.00 A Few Clouds FEW036 71.6 71.6 100% 29.97 0.0
23 05:55 Calm 8.00 Partly Cloudy SCT037 73.4 73.4 100% 29.97 0.0
23 05:35 Calm 7.00 Partly Cloudy SCT037 SCT043 73.4 73.4 100% 29.97 0.0
23 05:15 Calm 7.00 Mostly Cloudy BKN037 BKN045 73.4 73.4 100% 29.97 0.0
23 04:55 Calm 8.00 A Few Clouds FEW037 FEW045 73.4 73.4 100% 29.97 0.0
23 04:35 Calm 8.00 A Few Clouds FEW041 73.4 73.4 100% 29.97 0.0
23 04:15 Calm 9.00 Fair CLR 73.4 73.4 100% 29.97 0.0
23 03:55 Calm 9.00 Fair CLR 73.4 73.4 100% 29.98 0.0
23 03:35 Calm 9.00 Fair CLR 73.4 73.4 100% 29.98 0.0
23 03:15 Calm 9.00 A Few Clouds FEW041 FEW046 75.2 75.2 100% 73 29.98 0.0
23 02:55 Calm 9.00 Mostly Cloudy BKN042 75.2 75.2 100% 73 29.99 0.0
23 02:35 Calm 9.00 Overcast OVC040 75.2 75.2 100% 73 29.99 0.0
23 02:15 S 5 9.00 Overcast OVC037 75.2 75.2 100% 73 30 0.0
23 01:55 S 5 9.00 Overcast BKN038 OVC046 77 75.2 94% 78 30 0.0
23 01:35 S 3 9.00 Mostly Cloudy BKN037 BKN044 77 75.2 94% 78 30 0.0
23 01:15 S 5 9.00 Partly Cloudy SCT036 SCT043 77 75.2 94% 78 30 0.0
23 00:55 S 5 9.00 Partly Cloudy FEW036 SCT043 SCT050 78.8 75.2 89% 82 30 0.0
23 00:35 S 6 9.00 Mostly Cloudy FEW034 SCT041 BKN050 78.8 75.2 89% 82 30 0.0
23 00:15 Calm 9.00 Mostly Cloudy FEW030 BKN037 BKN043 78.8 75.2 89% 82 30.01 0.0
22 23:55 Calm 9.00 Overcast OVC030 80.6 75.2 84% 86 30 0.0
22 23:35 Calm 9.00 Mostly Cloudy SCT029 BKN036 BKN042 80.6 75.2 84% 86 30 0.0
22 23:15 Calm 9.00 Partly Cloudy SCT039 SCT045 80.6 75.2 84% 86 30 0.0
22 22:55 Calm 9.00 A Few Clouds FEW037 FEW050 80.6 75.2 84% 86 29.99 0.0
22 22:35 Calm 10.00 A Few Clouds FEW040 FEW046 FEW050 80.6 75.2 84% 86 29.99 0.0
22 22:15 Calm 9.00 Fair CLR 82.4 75.2 79% 89 29.98 0.0
22 21:55 Calm 9.00 Light Rain FEW044 FEW050 FEW055 82.4 73.4 74% 88 29.98 0.0
22 21:35 SE 5 9.00 Mostly Cloudy SCT043 BKN049 82.4 75.2 79% 89 29.97 0.0
22 21:15 SE 5 9.00 Partly Cloudy SCT045 82.4 75.2 79% 89 29.97 0.0
22 20:55 SE 6 9.00 A Few Clouds FEW043 82.4 75.2 79% 89 29.96 0.0
22 20:35 SE 5 9.00 Fair CLR 84.2 73.4 70% 91 29.96 0.0
22 20:15 SE 5 9.00 Fair CLR 84.2 73.4 70% 91 29.96 0.0
22 19:55 SE 5 9.00 A Few Clouds FEW070 86 73.4 66% 93 29.96 0.0
22 19:35 E 7 9.00 Partly Cloudy FEW050 FEW060 SCT070 87.8 71.6 59% 94 29.96 0.0
22 19:15 E 7 9.00 Mostly Cloudy SCT050 BKN060 BKN070 89.6 71.6 55% 96 29.96 0.0
22 18:55 E 6 9.00 Partly Cloudy SCT050 SCT055 91.4 69.8 49% 97 29.95 0.0
22 18:35 SE 6 9.00 A Few Clouds FEW050 91.4 71.6 52% 99 29.96 0.0
22 18:15 Calm 9.00 Fair CLR 91.4 71.6 52% 99 29.96 0.0
22 17:55 E 7 9.00 Partly Cloudy SCT055 SCT075 SCT085 91.4 71.6 52% 99 29.96 0.0
22 17:35 Calm 9.00 Partly Cloudy FEW055 SCT070 89.6 69.8 52% 95 29.96 0.0
22 17:15 E 7 9.00 Mostly Cloudy SCT055 BKN065 93.2 71.6 50% 101 29.97 0.0
22 16:55 SE 6 9.00 Mostly Cloudy BKN055 BKN065 BKN075 91.4 69.8 49% 97 29.97 0.0
22 16:35 E 5 G 12 9.00 Partly Cloudy SCT050 SCT070 91.4 71.6 52% 99 29.97 0.0
22 16:15 E 8 9.00 Mostly Cloudy BKN050 93.2 71.6 50% 101 29.98 0.0
22 15:55 Calm 9.00 Mostly Cloudy BKN050 BKN065 91.4 71.6 52% 99 29.99 0.0
22 15:35 S 5 9.00 Partly Cloudy SCT050 SCT065 93.2 71.6 50% 101 30 0.0
22 15:15 Calm 9.00 Partly Cloudy FEW050 SCT070 91.4 71.6 52% 99 30 0.0
22 14:55 SE 3 9.00 Mostly Cloudy BKN050 BKN060 91.4 71.6 52% 99 30.01 0.0
22 14:35 S 6 9.00 Mostly Cloudy BKN050 BKN060 91.4 73.4 56% 100 30.02 0.0
22 14:15 Calm 9.00 Mostly Cloudy BKN049 BKN055 89.6 71.6 55% 96 30.02 0.0
22 13:55 Calm 9.00 A Few Clouds FEW047 FEW055 89.6 73.4 59% 98 30.03 0.0
22 13:35 Calm 8.00 A Few Clouds FEW044 89.6 73.4 59% 98 30.04 0.0
22 13:15 Vrbl 3 8.00 Partly Cloudy SCT044 89.6 73.4 59% 98 30.04 0.0
22 12:55 Calm 9.00 A Few Clouds FEW043 89.6 73.4 59% 98 30.04 0.0
22 12:35 Calm 9.00 Fair CLR 89.6 73.4 59% 98 30.05 0.0
22 12:15 S 7 9.00 Fair CLR 89.6 75.2 63% 100 30.05 0.0
22 11:55 Calm 9.00 A Few Clouds FEW035 87.8 75.2 66% 98 30.06 0.0
22 11:35 S 7 8.00 Partly Cloudy SCT034 87.8 75.2 66% 98 30.07 0.0
22 11:15 S 6 G 13 9.00 A Few Clouds FEW026 FEW032 86 77 75% 97 30.07 0.0
22 10:55 Calm 9.00 Partly Cloudy SCT028 84.2 77 79% 94 30.08 0.0
22 10:35 Vrbl 6 9.00 A Few Clouds FEW022 FEW030 86 77 75% 97 30.08 0.0
22 10:15 S 6 8.00 Overcast BKN020 BKN026 OVC031 82.4 77 84% 91 30.08 0.0
22 09:55 Calm 7.00 Mostly Cloudy FEW014 SCT020 BKN026 84.2 78.8 84% 96 30.08 0.0
22 09:35 S 5 8.00 Mostly Cloudy SCT015 BKN026 82.4 78.8 89% 92 30.08 0.0
22 09:15 SE 5 6.00 Fog/Mist FEW009 SCT013 80.6 80.6 100% 89 30.09 0.0
22 08:55 Calm 6.00 Fog/Mist SCT008 SCT013 80.6 80.6 100% 89 30.08 0.0
22 08:35 S 3 5.00 Fog/Mist SCT006 SCT013 78.8 78.8 100% 83 30.08 0.0
22 08:15 Calm 4.00 Fog/Mist FEW004 FEW009 FEW013 77 77 100% 78 30.08 0.0
22 07:55 Calm 3.00 Fog/Mist FEW003 FEW009 75.2 75.2 100% 73 30.08 0.0
22 07:35 Calm 2.50 Fog/Mist FEW003 73.4 73.4 100% 30.08 0.0
22 07:15 Calm 2.00 Fog/Mist FEW003 73.4 73.4 100% 30.07 0.0
22 06:55 Calm 0.25 Fog VV002 73.4 73.4 100% 30.07 0.0
22 06:35 Calm 0.50 Fog/Mist VV005 71.6 71.6 100% 30.07 0.0
22 06:15 Calm 3.00 Fog/Mist FEW017 71.6 71.6 100% 30.08 0.0
22 05:55 Calm 3.00 Fog/Mist FEW017 SCT022 73.4 73.4 100% 30.08 0.0
22 05:35 Calm 0.50 Fog BKN017 BKN023 73.4 73.4 100% 30.07 0.0
22 05:15 Calm 5.00 Fog/Mist FEW016 73.4 73.4 100% 30.07 0.0
22 04:55 Calm 4.00 Fog/Mist CLR 73.4 73.4 100% 30.07 0.0
22 04:35 Calm 5.00 Fog/Mist CLR 73.4 73.4 100% 30.07 0.0
22 04:15 Calm 6.00 Fog/Mist CLR 73.4 73.4 100% 30.07 0.0
22 03:55 Calm 7.00 A Few Clouds FEW016 FEW030 73.4 73.4 100% 30.07 0.0
22 03:35 Calm 7.00 Mostly Cloudy SCT016 BKN029 BKN039 73.4 73.4 100% 30.07 0.0
22 03:15 Calm 6.00 Fog/Mist FEW016 FEW028 FEW037 75.2 75.2 100% 73 30.07 0.0
22 02:55 Calm 7.00 A Few Clouds FEW027 FEW034 75.2 75.2 100% 73 30.07 0.0
22 02:35 Calm 8.00 Fair CLR 75.2 75.2 100% 73 30.07 0.0
22 02:15 Calm 9.00 Mostly Cloudy FEW026 SCT050 BKN055 75.2 75.2 100% 73 30.07 0.0
22 01:55 Calm 9.00 Mostly Cloudy FEW023 SCT027 BKN049 77 77 100% 78 30.08 0.0
22 01:35 Calm 9.00 Mostly Cloudy FEW023 SCT028 BKN033 75.2 75.2 100% 73 30.08 0.0
22 01:15 Calm 9.00 Overcast BKN027 BKN032 OVC049 75.2 75.2 100% 73 30.08 0.0
22 00:55 Calm 9.00 Overcast FEW030 OVC048 77 77 100% 78 30.08 0.0
22 00:35 Calm 9.00 Overcast BKN047 OVC050 77 77 100% 78 30.08 0.0
22 00:15 Calm 9.00 Mostly Cloudy BKN048 BKN055 77 77 100% 78 30.07 0.0
21 23:55 Calm 9.00 Mostly Cloudy BKN045 BKN050 77 75.2 94% 78 30.08 0.0
21 23:35 SE 5 10.00 Overcast BKN041 OVC047 77 75.2 94% 78 30.07 0.0
21 23:15 SE 6 10.00 Overcast BKN039 OVC047 78.8 75.2 89% 82 30.07 0.0
21 22:55 SE 5 10.00 Overcast FEW031 OVC037 78.8 75.2 89% 82 30.07 0.0
21 22:35 SE 5 10.00 Overcast SCT031 BKN037 OVC070 78.8 75.2 89% 82 30.06 0.0
21 22:15 SE 6 10.00 Mostly Cloudy FEW032 BKN040 BKN055 78.8 75.2 89% 82 30.05 0.0
21 21:55 SE 7 10.00 Mostly Cloudy FEW030 SCT055 BKN110 80.6 73.4 79% 85 30.05 0.0
21 21:35 SE 7 10.00 Partly Cloudy FEW047 SCT055 SCT110 80.6 73.4 79% 85 30.05 0.0
21 21:15 SE 12 9.00 A Few Clouds FEW047 82.4 73.4 74% 88 30.04 0.0
21 20:55 E 3 8.00 Fair CLR 82.4 73.4 74% 88 30.04 0.0
21 20:35 E 6 9.00 Fair CLR 84.2 73.4 70% 91 30.04 0.0
21 19:55 E 7 10.00 Fair CLR 87.8 71.6 59% 94 30.03 0.0
21 19:35 E 8 9.00 Fair CLR 87.8 71.6 59% 94 30.03 0.0
21 19:15 E 8 9.00 Fair CLR 89.6 71.6 55% 96 30.03 0.0
21 18:55 E 8 9.00 A Few Clouds FEW049 89.6 71.6 55% 96 30.03 0.0
21 18:35 E 13 9.00 A Few Clouds FEW048 89.6 71.6 55% 96 30.03 0.0
21 18:15 E 9 9.00 A Few Clouds FEW046 91.4 71.6 52% 99 30.03 0.0
21 17:55 E 10 10.00 A Few Clouds FEW046 89.6 73.4 59% 98 30.03 0.0
21 17:35 E 10 G 16 9.00 A Few Clouds FEW046 FEW050 91.4 73.4 56% 100 30.03 0.0
21 17:15 E 10 G 16 9.00 A Few Clouds FEW048 91.4 73.4 56% 100 30.04 0.0
21 16:55 E 10 9.00 Fair CLR 91.4 73.4 56% 100 30.04 0.0
21 16:35 E 12 10.00 A Few Clouds FEW043 FEW055 89.6 73.4 59% 98 30.05 0.0
21 15:55 E 16 9.00 Partly Cloudy SCT044 SCT055 91.4 75.2 59% 103 30.06 0.0
21 15:35 E 12 G 17 10.00 Partly Cloudy SCT045 SCT055 89.6 75.2 63% 100 30.06 0.0
21 15:15 E 13 9.00 Partly Cloudy SCT042 SCT048 91.4 75.2 59% 103 30.07 0.0
21 14:55 E 12 9.00 Partly Cloudy SCT041 SCT046 SCT055 89.6 77 67% 103 30.08 0.0
21 14:35 E 7 8.00 Mostly Cloudy FEW042 SCT060 BKN085 87.8 77 70% 100 30.09 0.0
21 14:15 E 10 9.00 Mostly Cloudy FEW045 SCT050 BKN065 89.6 77 67% 103 30.1 0.0
21 13:55 E 6 G 14 9.00 Partly Cloudy FEW036 FEW046 SCT075 89.6 77 67% 103 30.1 0.0
21 13:35 E 8 G 16 9.00 Partly Cloudy FEW041 FEW050 SCT080 87.8 77 70% 100 30.11 0.0
21 13:15 SE 9 9.00 Mostly Cloudy FEW033 SCT050 BKN060 87.8 77 70% 100 30.11 0.0
21 12:55 NE 8 9.00 Mostly Cloudy FEW033 SCT040 BKN055 89.6 78.8 71% 105 30.12 0.0
21 12:35 E 9 9.00 Mostly Cloudy FEW028 SCT040 BKN060 87.8 78.8 75% 102 30.13 0.0
21 12:15 E 8 8.00 Mostly Cloudy BKN029 BKN039 BKN049 87.8 78.8 75% 102 30.13 0.0
21 11:55 E 8 8.00 Mostly Cloudy SCT027 BKN032 BKN048 87.8 78.8 75% 102 30.13 0.0
21 11:35 E 7 8.00 Mostly Cloudy SCT025 BKN032 BKN041 86 78.8 79% 99 30.14 0.0
21 11:15 E 8 8.00 Mostly Cloudy FEW020 SCT025 BKN031 84.2 78.8 84% 96 30.14 0.0
21 10:55 E 10 7.00 Mostly Cloudy SCT019 BKN026 BKN036 84.2 80.6 89% 98 30.14 0.0
21 10:35 SE 6 G 12 7.00 Partly Cloudy FEW017 SCT024 SCT032 82.4 78.8 89% 92 30.14 0.0
21 10:15 Vrbl 7 6.00 Fog/Mist BKN016 BKN021 82.4 80.6 94% 94 30.14 0.0
21 09:55 E 7 6.00 Fog/Mist SCT014 BKN019 82.4 80.6 94% 94 30.14 0.0
21 09:35 E 3 5.00 Fog/Mist SCT009 BKN014 80.6 80.6 100% 89 30.13 0.0
21 09:15 E 6 5.00 Fog/Mist BKN008 OVC013 78.8 78.8 100% 83 30.13 0.0
21 08:55 NE 6 5.00 Fog/Mist BKN006 BKN010 OVC013 78.8 78.8 100% 83 30.13 0.0
21 08:35 NE 3 3.00 Fog/Mist OVC004 77 77 100% 78 30.13 0.0
21 08:15 NE 5 4.00 Fog/Mist BKN004 77 77 100% 78 30.12 0.0
21 07:55 NE 3 3.00 Fog/Mist SCT003 BKN014 BKN018 77 77 100% 78 30.12 0.0
21 07:35 NE 3 3.00 Fog/Mist FEW003 BKN013 BKN018 75.2 75.2 100% 73 30.12 0.0
21 07:15 NE 3 3.00 Fog/Mist BKN013 75.2 75.2 100% 73 30.11 0.0
21 06:55 Calm 3.00 Fog/Mist FEW014 73.4 73.4 100% 30.11 0.0
21 06:35 NE 5 3.00 Fog/Mist FEW013 FEW019 SCT029 73.4 73.4 100% 30.11 0.0
21 06:15 N 3 5.00 Fog/Mist BKN013 OVC019 73.4 73.4 100% 30.1 0.0
21 05:55 NE 3 5.00 Fog/Mist BKN013 73.4 73.4 100% 30.1 0.0
21 05:35 Calm 5.00 Fog/Mist BKN015 73.4 73.4 100% 30.1 0.0
21 05:15 Calm 7.00 Partly Cloudy SCT015 73.4 73.4 100% 30.09 0.0
21 04:55 Calm 6.00 Fog/Mist FEW014 73.4 73.4 100% 30.09 0.0
21 04:35 Calm 7.00 Mostly Cloudy BKN014 73.4 73.4 100% 30.09 0.0
21 04:15 Calm 7.00 Partly Cloudy SCT013 73.4 73.4 100% 30.09 0.0
21 03:55 Calm 6.00 Fog/Mist SCT015 SCT026 SCT037 73.4 73.4 100% 30.09 0.0
21 03:35 Calm 7.00 Mostly Cloudy SCT016 SCT020 BKN026 73.4 73.4 100% 30.1 0.0
21 03:15 Calm 7.00 Mostly Cloudy SCT020 BKN025 BKN031 75.2 75.2 100% 73 30.1 0.0
21 02:55 Calm 7.00 Fair CLR 75.2 75.2 100% 73 30.1 0.0
21 02:35 Calm 7.00 Fair CLR 75.2 75.2 100% 73 30.1 0.0
21 02:15 Calm 8.00 Fair CLR 75.2 75.2 100% 73 30.11 0.0
21 01:55 Calm 9.00 Fair CLR 75.2 75.2 100% 73 30.11 0.0
21 01:35 Calm 8.00 A Few Clouds FEW019 FEW025 FEW029 75.2 75.2 100% 73 30.12 0.0
21 01:15 Calm 8.00 Mostly Cloudy FEW020 SCT027 BKN038 75.2 75.2 100% 73 30.12 0.0
21 00:55 Calm 9.00 Partly Cloudy FEW021 FEW026 SCT040 75.2 75.2 100% 73 30.12 0.0
21 00:35 Calm 9.00 A Few Clouds FEW032 FEW040 77 77 100% 78 30.12 0.0
21 00:15 Calm 9.00 Fair CLR 77 77 100% 78 30.12 0.0
20 23:55 Calm 9.00 A Few Clouds FEW024 FEW030 FEW039 77 77 100% 78 30.12 0.0
20 23:35 Calm 9.00 A Few Clouds FEW027 FEW035 FEW041 77 77 100% 78 30.11 0.0
20 23:15 Calm 9.00 Partly Cloudy FEW033 SCT041 SCT055 77 77 100% 78 30.11 0.0
20 22:55 Calm 9.00 Mostly Cloudy FEW025 SCT032 BKN038 77 77 100% 78 30.1 0.0
20 22:35 Calm 8.00 Mostly Cloudy FEW026 BKN033 BKN043 77 77 100% 78 30.1 0.0
20 22:15 Calm 9.00 Mostly Cloudy FEW029 BKN034 BKN045 77 77 100% 78 30.09 0.0
20 21:55 E 5 9.00 Mostly Cloudy FEW033 BKN055 BKN065 77 77 100% 78 30.08 0.0
20 21:35 NE 3 9.00 Mostly Cloudy FEW033 SCT041 BKN049 77 77 100% 78 30.08 0.0
20 21:15 Calm 9.00 Mostly Cloudy FEW025 SCT035 BKN041 78.8 77 94% 83 30.07 0.0
20 20:55 E 5 8.00 Partly Cloudy FEW033 SCT040 SCT049 78.8 78.8 100% 83 30.07 0.0
20 20:35 E 7 8.00 Partly Cloudy FEW042 SCT049 SCT065 80.6 77 89% 87 30.06 0.0
20 20:15 E 10 9.00 Mostly Cloudy FEW041 SCT050 BKN065 82.4 75.2 79% 89 30.05 0.0
20 19:55 E 7 8.00 Mostly Cloudy BKN038 BKN050 80.6 78.8 94% 88 30.05 0.0
20 19:35 Vrbl 5 G 14 6.00 Light Rain Haze BKN037 BKN042 BKN050 82.4 77 84% 91 30.05 0.0
Date Time (cdt) Wind (mph) Vis. (mi.) Weather Sky Cond. Air Dwpt Max. Min. Relative Humidity Wind Chill (°F) Heat Index (°F) altimeter (in) sea level (mb) 1 hr 3 hr 6 hr
6 hour
Temperature (ºF) Pressure Precipitation (in)